Regional Weather Roundup
Issued by NWS

Home | Current Version | Previous Version | Text Only | Print | Product List | Glossary Off
Versions: 1 2 3 4 5 6 7 8 9 10 11 12 13 14 15 16 17 18 19 20 21 22 23 24 25 26 27 28 29 30 31 32 33 34 35 36 37 38 39 40 41 42 43 44 45 46 47 48 49 50

000
ASUS43 KDTX 231601
RWRMI
MICHIGAN HOURLY REGIONAL WEATHER ROUNDUP
NATIONAL WEATHER SERVICE DETROIT/PONTIAC MI
1100 AM EST THU NOV 23 2017

NOTE: "FAIR" INDICATES FEW OR NO CLOUDS BELOW 12,000 FEET WITH NO
SIGNIFICANT WEATHER AND/OR OBSTRUCTION TO VISIBILITY.

MIZ047>049-052>055-059>063-066>070-074>076-081>083-231700-
SOUTHEAST LOWER MICHIGAN

CITY           SKY/WX    TMP DP  RH WIND       PRES   REMARKS
ADRIAN         CLOUDY    31  25  78 SW12      30.09F WCI  22
ALMA           CLOUDY    34  25  69 S10G16    30.01F WCI  26
ANN ARBOR      CLOUDY    32  24  72 S9        30.07S WCI  24
BAD AXE        CLOUDY    32  24  74 SW8       30.00F WCI  25
CARO           CLOUDY    32  23  70 S8        30.01F WCI  25
DETROIT CITY   CLOUDY    34  22  61 SW15      30.08F WCI  24
DETROIT        CLOUDY    34  25  69 S10       30.09F WCI  26
FLINT          CLOUDY    32  20  61 SW8       30.04F WCI  25
GROSSE ILE     CLOUDY    34  26  72 SW9       30.08F WCI  26
HILLSDALE      CLOUDY    32  23  69 SW7       30.05S WCI  26
HOWELL         CLOUDY    32  22  67 SW7       30.04F WCI  26

CITY           SKY/WX    TMP DP  RH WIND       PRES   REMARKS
JACKSON        CLOUDY    33  21  61 S8        30.04F WCI  26
LAMBERTVILLE   CLOUDY    36  25  65 SW6       30.10S WCI  31
LANSING        CLOUDY    33  22  63 S12       30.03F WCI  24
LAPEER         CLOUDY    32  22  66 SW9       30.03S WCI  24
MASON          CLOUDY    34  22  62 CALM      30.04F
MONROE         CLOUDY    36  25  65 SW8       30.09S WCI  29
MT. CLEMENS    CLOUDY    33  24  69 SW12      30.05F WCI  25
PONTIAC        CLOUDY    30  22  72 SW7       30.04F WCI  23
PORT HOPE        N/A     32  26  78 SW7       29.98F WCI  26
PORT HURON     CLOUDY    32  21  64 SW5       30.05F WCI  27
TRI CITIES     CLOUDY    33  24  69 S10       30.00F WCI  25
MIDLAND        CLOUDY    34  25  69 S9        29.98F WCI  26
TROY           CLOUDY    34  23  64 SW8       30.08F WCI  27
SAGINAW HB     CLOUDY    32  25  74 SW13      30.01F WCI  22
$$
MIZ043>046-050>051-056>058-064>065-071>073-077>080-231700-
SOUTHWEST LOWER MICHIGAN

CITY           SKY/WX    TMP DP  RH WIND       PRES   REMARKS
BATTLE CREEK   CLOUDY    34  22  61 SW12      30.04F WCI  25
BENTON HARBOR  CLOUDY    36  22  56 S9        30.03F WCI  29
BIG RAPIDS     CLOUDY    35  26  69 S7        29.94F WCI  29
COLDWATER      CLOUDY    33  21  61 SW8       30.05F WCI  26
FREMONT        CLOUDY    41  27  57 SW17      29.96F
HOLLAND        MOSUNNY   37  25  61 S15       30.01F WCI  28
GRAND RAPIDS   PTSUNNY   35  25  66 S13       30.00F WCI  26
IONIA          CLOUDY    34  22  61 S13       29.99F WCI  25
KALAMAZOO      CLOUDY    34  19  54 SW10      30.04F WCI  26
LUDINGTON      CLOUDY    38  24  57 SW12      29.95S WCI  31
MARSHALL       CLOUDY    33  21  61 SW8       30.04F WCI  26
MOUNT PLEASANT CLOUDY    35  24  64 S8        29.97F WCI  28
MUSKEGON       PTSUNNY   43  26  51 SW17G24   29.98F
SOUTH HAVEN    CLOUDY    37  22  54 SW8       30.03S WCI  31
$$
MIZ016>042-231700-
NORTHERN LOWER MICHIGAN

CITY           SKY/WX    TMP DP  RH WIND       PRES   REMARKS
ALPENA         CLOUDY    33  28  81 SW8       29.92F WCI  26
BEAVER ISLAND  CLOUDY    36  28  73 SW12G17   29.88F WCI  28
BELLAIRE       CLOUDY    34  30  86 SW7       29.92F WCI  28
CADILLAC       CLOUDY    35  24  64 SW13      29.90F WCI  27
CHARLEVOIX     CLOUDY    35  30  80 SW6       29.93S WCI  30
FRANKFORT      PTSUNNY   40  25  54 SW7       29.92F
GAYLORD        CLOUDY    30  25  81 SW15      29.88F WCI  19
GRAYLING       CLOUDY    32  25  75 SW8       29.91F WCI  25
HARBOR SPRINGS CLOUDY    34  32  93 SW13G18   29.88F WCI  25
HOUGHTON LAKE  CLOUDY    32  24  72 SW10      29.93F WCI  24
MANISTEE       PTSUNNY   38  24  57 W12       29.93F WCI  30
OSCODA         CLOUDY    32  26  78 SW8       29.95F WCI  25
PELLSTON       CLOUDY    35  30  82 W7        29.89F WCI  29
ROGERS CITY    CLOUDY    33  28  82 SW9       29.90S WCI  25
TRAVERSE CITY  CLOUDY    37  25  61 SW5       29.91F WCI  33
$$
MIZ007>008-015-231700-
EASTERN UPPER MICHIGAN

CITY           SKY/WX    TMP DP  RH WIND       PRES   REMARKS
KINROSS        CLOUDY    29  22  75 W8        29.86F WCI  21
MACKINAC ISLAN CLOUDY    35  30  80 W14G25    29.87S WCI  26
NEWBERRY       CLOUDY    28  22  76 SW8       29.85F WCI  20
S. S. MARIE    CLOUDY    29  22  75 SW7       29.86S WCI  22
MUNISING         N/A     32  22  66 VRB3      29.87F
$$
MIZ004>006-011>014-085-231700-
CENTRAL UPPER MICHIGAN

CITY           SKY/WX    TMP DP  RH WIND       PRES   REMARKS
MANISTIQUE     PTSUNNY   32  16  52 W6        29.88F WCI  26
ESCANABA       CLOUDY    32  22  66 W12       29.90F WCI  23
MENOMINEE      CLOUDY    34  21  59 W7        29.92F WCI  28
SAWYER-GWINN   SUNNY     28  21  74 W12G17    29.85F WCI  18
$$
MIZ001>003-009>011-084-231700-
WESTERN UPPER MICHIGAN

CITY           SKY/WX    TMP DP  RH WIND       PRES   REMARKS
IRON MOUNTAIN  PTSUNNY   32  18  56 W8        29.88R WCI  25
HOUGHTON       CLOUDY    32  25  75 W15G23    29.82S WCI  22
COPPER HARBOR    N/A     34  25  69 N15G22    29.82F WCI  24
IRONWOOD       SUNNY     29  19  66 W10       29.88F WCI  20
$$

ABBREVIATIONS USED IN REMARKS
   TC - TEMPERATURE IN CELSIUS
  WCI - WIND CHILL INDEX
   HX - HEAT INDEX
  VSB - VISIBILITY





USA.gov is the U.S. government's official web portal to all federal, state and local government web resources and services.